Tracking 18957 objects as of 22-Jan-2018
HD Live streaming from Space Station
objects crossing your sky now

FENGYUN 1C DEB

Track FENGYUN 1C DEB now!
10-day predictions


NORAD ID: 31272
Int'l Code: 1999-025BNE
Perigee: 759.5 km
Apogee: 924.7 km
Inclination: 99.0 °
Period: 101.6 minutes
Semi major axis: 7213 km
RCS: 0.0083 m2 (small)
Launch date: May 10, 1999
Source: People's Republic of China (PRC)
Launch site: Taiyaun Space Center, China (TSC)

Note: This is SATELLITE DEBRIS
aabbcc
Your satellite tracking list
Your tracking list is empty




NASA's NSSDC Master Catalog

Two Line Element Set (TLE):
1 31272U 99025BNE 18021.81324300  .00000219  00000-0  12326-3 0  9992
2 31272  98.9964 137.6610 0114486  22.1043 130.5976 14.17171220561551
Source of the keplerian elements: AFSPC